Temp
54 54 54 55 55 55 55 55 55 55 55 55 56 56 57 57 55 54 57 60 51 50 55 60 60 56 57 57 51 57 57 58 58 54 55 57 58 64 64 68 68 66 64 65 68 64 62 91 90 80 82 90 94 96
54 54 54 54 54 54 54 55 55 55 55 55 56 56 56 56 56 55 50 62 59 47 54 62 64 66 66 65 60 60 53 54 54 49 47 52 59 65 63 59 73 65 73 69 71 71 83 89 87 90 91 92 91 91
54 54 54 54 54 54 54 55 55 55 55 55 55 56 56 55 55 55 55 56 53 47 54 57 58 67 71 70 73 56 60 61 58 62 54 51 49 54 51 61 60 74 79 72 70 77 81 85 90 91 93 92 94 94
54 54 54 54 54 54 54 55 55 55 55 55 55 55 56 55 55 54 54 56 51 50 46 56 71 64 73 73 71 70 66 67 64 62 53 52 47 61 50 53 56 63 64 71 72 78 81 86 87 89 91 93 93 96
53 53 53 54 54 54 54 54 55 55 55 55 55 55 55 55 55 57 59 59 55 47 48 53 63 68 71 71 69 69 66 63 61 57 54 52 59 57 60 58 57 67 65 61 68 67 70 78 87 91 89 90 91 93
53 53 53 54 54 54 54 54 54 54 54 54 54 54 54 55 54 56 52 62 63 54 43 44 63 61 66 68 66 65 65 63 62 58 57 60 64 58 49 51 62 67 68 68 69 74 73 75 81 86 87 89 94 94
53 53 53 53 54 54 54 54 54 54 54 54 53 53 53 54 56 52 48 51 55 55 42 41 50 61 66 65 65 64 66 63 61 59 57 58 60 59 53 48 59 65 67 69 72 73 70 75 75 81 84 91 87 93
53 53 53 53 54 54 54 53 53 53 53 53 53 53 52 53 52 51 60 58 58 50 47 38 46 53 57 52 50 64 60 61 59 56 58 54 57 58 49 57 61 66 68 70 71 76 76 78 78 80 79 91 89 87
53 53 53 53 53 53 53 53 53 53 53 53 53 53 51 48 47 50 55 54 53 47 38 39 40 40 59 49 52 54 57 44 57 51 53 56 52 48 55 58 61 64 66 68 73 77 77 74 76 79 80 89 87 85
53 53 53 53 53 53 53 53 53 53 52 52 53 48 44 49 53 51 46 42 41 42 41 36 50 45 50 48 47 48 53 50 45 52 58 51 52 60 64 66 67 69 71 73 69 68 71 71 73 68 71 88 87 84
53 53 53 53 53 53 53 53 53 52 51 52 48 46 50 53 48 44 39 37 37 35 38 39 42 42 55 43 42 47 42 45 39 48 47 48 49 58 65 65 68 72 74 75 75 74 74 74 72 69 67 86 84 84
53 53 53 53 53 53 53 53 53 55 54 50 50 51 52 46 43 38 35 37 35 35 40 38 39 40 44 50 43 42 41 41 35 46 42 44 58 65 67 68 69 72 74 74 74 69 72 73 69 65 70 82 79 80
53 52 52 52 52 53 53 53 53 53 52 54 48 46 45 44 35 32 32 33 32 35 37 40 40 42 41 45 42 40 36 36 41 39 37 45 56 57 59 62 64 66 68 70 68 69 70 73 68 70 69 73 79 78
52 52 52 52 53 53 54 53 53 55 58 48 47 41 43 43 42 40 40 43 47 43 40 42 41 42 45 41 40 33 38 36 34 33 33 41 46 49 56 60 63 64 66 65 66 70 64 64 68 69 73 74 72 72
52 52 52 55 55 54 53 53 54 61 55 51 49 39 43 51 53 53 57 53 54 53 45 42 43 42 40 36 37 37 35 34 34 34 37 46 49 50 51 54 56 55 56 57 61 61 64 64 65 66 68 69 73 74
52 53 62 54 54 54 53 59 63 65 64 53 48 44 55 52 51 55 61 57 64 63 57 53 46 43 42 41 38 36 35 33 37 45 47 49 48 49 51 53 54 55 56 56 59 59 62 62 60 60 64 65 66 67
51 70 54 54 53 53 55 67 74 67 64 58 49 50 57 56 51 57 65 64 68 60 54 54 45 43 46 42 38 44 42 45 49 50 50 52 51 51 51 52 53 55 55 55 57 58 60 61 61 62 61 63 65 66
64 71 57 54 54 63 77 75 69 66 60 64 52 60 58 61 59 62 66 66 62 59 56 48 50 44 42 41 43 47 50 52 54 53 53 53 54 54 54 53 54 55 54 57 57 57 58 58 58 57 60 66 67 67
61 59 54 52 56 60 71 73 72 61 63 59 67 69 68 66 68 69 69 69 67 65 56 50 46 44 45 48 49 50 52 54 53 54 54 55 55 55 55 57 57 57 58 57 56 56 57 58 58 60 59 59 63 65
52 53 53 54 57 71 69 71 75 66 63 64 66 62 60 64 67 68 68 67 65 63 56 50 49 50 49 52 55 55 55 57 55 54 54 55 57 59 56 57 57 56 57 59 61 55 62 65 69 70 72 69 68 67
57 65 60 66 73 74 72 70 68 71 68 64 68 67 62 69 62 59 62 67 62 56 53 57 58 59 62 61 60 59 59 59 56 54 55 56 59 57 58 58 62 63 63 64 63 63 66 67 68 70 71 71 74 75
72 58 70 72 72 73 71 75 70 71 68 68 65 68 62 59 58 62 66 62 59 57 57 62 61 66 67 65 64 68 64 63 64 65 59 63 62 66 64 68 61 58 63 60 63 65 70 73 72 74 76 72 67 75
62 63 73 73 67 59 57 75 66 69 61 63 67 60 59 61 64 68 57 57 59 66 68 69 66 68 67 69 69 68 68 70 66 64 64 66 68 69 69 68 68 66 64 62 60 66 68 60 70 70 75 69 68 72
54 68 67 68 62 55 67 58 67 63 63 59 61 58 60 61 63 60 55 57 62 68 68 65 69 68 69 67 68 68 69 71 72 70 71 70 64 63 69 70 70 70 69 71 71 69 69 70 63 71 72 72 70 68
54 57 62 43 69 63 60 60 55 52 53 58 55 54 56 64 54 53 49 54 58 62 64 67 68 68 66 67 68 68 69 72 70 68 70 71 69 70 70 71 69 68 70 68 66 67 68 67 70 70 71 70 68 69
44 66 52 66 65 63 63 59 61 61 62 58 55 55 56 54 47 41 45 51 55 57 59 65 65 65 66 68 66 66 68 71 70 67 67 71 69 67 65 63 62 62 68 68 66 65 65 65 66 67 69 67 53 67
53 64 64 67 73 69 65 68 67 64 57 53 53 55 50 40 37 40 46 53 52 54 62 68 67 67 66 67 69 71 71 70 68 67 71 70 70 69 67 63 60 62 67 67 65 64 62 62 62 64 65 67 68 67
71 71 63 68 67 66 64 63 60 57 57 58 49 40 38 39 39 44 46 49 51 58 63 69 70 70 69 69 70 70 69 69 69 69 70 71 70 68 67 68 66 51 64 64 64 64 62 62 61 62 63 64 65 66
67 73 72 66 64 63 63 62 60 62 65 61 50 48 48 52 57 54 56 57 60 61 62 68 68 70 69 69 69 69 68 65 60 57 57 58 60 62 65 65 65 65 66 65 48 55 59 60 61 62 62 63 64 64
65 76 67 63 60 59 63 67 63 65 65 63 61 58 58 60 63 66 64 63 64 67 68 68 68 66 64 64 63 63 66 64 61 57 53 54 56 60 61 61 62 63 63 63 62 64 51 59 58 62 61 60 60 59
72 74 70 68 64 66 68 68 67 67 65 62 63 57 55 56 62 67 65 68 69 69 67 65 65 65 62 62 60 59 58 63 61 59 57 58 58 57 58 59 61 61 60 60 61 61 60 59 59 58 57 56 56 55
71 71 69 64 60 66 67 63 59 60 59 58 56 58 53 48 48 62 68 69 67 65 59 64 63 62 63 64 63 63 50 62 59 57 55 55 55 55 57 59 58 58 58 58 59 59 57 55 54 53 53 52 53 53
73 73 72 70 67 61 66 64 60 58 59 57 55 53 51 51 52 63 69 70 67 65 64 65 66 65 63 62 61 61 57 58 49 41 41 39 38 42 53 55 54 55 55 56 55 55 53 51 51 50 50 50 50 49
MSLP
1025.92 1025.36 1024.74 1024.16 1023.62 1023.02 1022.44 1021.88 1021.31 1020.85 1020.24 1019.74 1019.17 1018.80 1018.38 1018.03 1018.01 1018.20 1017.04 1016.54 1017.11 1016.12 1014.23 1013.02 1012.32 1011.61 1011.06 1010.76 1009.81 1009.04 1008.57 1007.79 1006.80 1005.56 1004.86 1003.57 1001.51 999.48 998.29 996.45 995.58 994.88 994.53 993.82 993.51 992.54 991.58 990.59 990.26 990.48 990.78 990.08 989.87 989.93
1025.45 1024.91 1024.29 1023.66 1023.14 1022.54 1021.91 1021.37 1020.87 1020.38 1019.92 1019.54 1019.03 1018.67 1018.24 1018.02 1017.82 1017.91 1017.22 1016.04 1016.39 1016.72 1014.43 1013.35 1012.70 1011.85 1010.95 1010.39 1010.27 1009.83 1010.04 1009.44 1009.10 1007.89 1007.50 1005.91 1002.52 1000.55 999.43 997.62 996.30 995.34 994.32 994.50 994.03 993.25 992.52 991.66 991.39 991.14 991.06 990.68 990.73 990.84
1024.83 1024.29 1023.75 1023.22 1022.67 1022.03 1021.47 1020.98 1020.44 1019.95 1019.53 1019.13 1018.86 1018.39 1018.02 1017.77 1017.58 1017.48 1016.78 1016.62 1016.60 1016.14 1014.17 1012.34 1010.92 1010.34 1010.40 1010.19 1009.64 1009.61 1009.06 1009.45 1009.66 1009.43 1009.26 1008.16 1005.70 1003.84 1002.14 999.87 998.31 996.00 995.44 994.92 995.34 994.05 993.38 992.92 992.27 992.00 991.51 991.44 991.30 991.76
1024.30 1023.65 1023.05 1022.54 1022.04 1021.45 1020.98 1020.44 1019.94 1019.34 1018.98 1018.71 1018.32 1017.96 1017.68 1017.51 1017.26 1017.03 1016.32 1016.19 1016.61 1015.75 1013.80 1010.54 1008.84 1009.23 1008.42 1008.55 1008.80 1009.06 1008.99 1008.95 1009.37 1009.18 1009.11 1008.35 1007.41 1005.10 1004.28 1003.50 1001.93 1000.31 998.56 996.09 995.14 994.92 994.60 993.19 993.06 992.46 992.22 992.03 991.92 991.84
1023.75 1023.10 1022.53 1021.90 1021.31 1020.77 1020.35 1019.85 1019.30 1018.68 1018.29 1018.02 1017.81 1017.44 1017.23 1017.21 1017.12 1016.73 1015.84 1015.56 1015.98 1016.07 1013.36 1010.89 1009.66 1008.72 1008.30 1007.97 1007.73 1008.07 1008.41 1008.65 1008.53 1008.43 1008.31 1007.69 1007.03 1006.44 1004.86 1004.06 1001.97 1000.97 999.24 998.64 996.51 997.44 996.28 994.31 993.65 993.05 992.52 992.30 992.24 992.18
1023.05 1022.50 1021.88 1021.25 1020.60 1020.14 1019.67 1019.14 1018.61 1018.18 1017.59 1017.25 1017.05 1016.89 1016.68 1016.68 1016.75 1016.12 1014.78 1013.74 1014.30 1015.02 1014.72 1012.07 1008.97 1008.19 1007.55 1007.00 1007.31 1007.34 1007.74 1008.04 1008.08 1007.73 1007.35 1007.12 1006.53 1006.69 1005.54 1003.28 1002.40 1001.33 1000.53 1000.04 998.55 998.09 997.79 996.49 994.90 993.98 993.26 992.58 991.98 992.30
1022.27 1021.68 1021.02 1020.50 1019.82 1019.41 1019.08 1018.40 1017.94 1017.50 1016.94 1016.50 1016.28 1016.13 1016.05 1016.06 1016.19 1015.42 1015.05 1015.19 1015.20 1014.96 1015.20 1013.12 1009.38 1007.66 1007.14 1007.00 1006.85 1006.84 1007.08 1007.20 1007.42 1007.17 1006.79 1006.51 1006.00 1006.00 1005.10 1003.33 1002.69 1001.60 1001.27 1001.22 1000.00 998.82 997.35 996.67 996.07 994.95 993.89 992.18 991.88 992.41
1021.38 1020.84 1020.24 1019.73 1019.21 1018.43 1018.27 1017.72 1017.24 1016.76 1016.27 1015.67 1015.35 1015.20 1015.28 1015.42 1015.83 1015.16 1013.98 1014.04 1014.78 1015.05 1015.00 1013.50 1010.24 1008.00 1008.29 1007.61 1007.58 1006.99 1006.76 1006.90 1007.19 1007.34 1007.02 1006.64 1006.18 1005.25 1004.00 1003.25 1002.62 1001.73 1001.22 1000.35 999.62 998.86 998.07 997.06 996.45 995.34 994.30 992.52 992.37 993.17
1020.48 1020.00 1019.43 1018.94 1018.31 1017.60 1017.47 1017.06 1016.54 1015.98 1015.49 1014.94 1014.57 1014.53 1014.84 1015.27 1014.76 1014.45 1014.35 1014.38 1014.83 1015.44 1014.53 1013.29 1010.85 1008.91 1008.68 1008.42 1008.24 1008.24 1008.20 1008.05 1007.65 1006.91 1006.44 1006.17 1005.03 1003.69 1001.94 1002.76 1002.26 1001.28 1000.65 999.96 999.03 998.23 997.82 997.34 996.56 995.54 994.87 992.84 993.10 994.02
1019.67 1019.16 1018.56 1018.05 1017.54 1016.94 1016.66 1016.42 1015.82 1015.42 1014.94 1014.61 1014.43 1014.50 1014.27 1014.18 1014.26 1014.50 1014.82 1014.98 1015.22 1014.98 1014.72 1012.98 1011.08 1009.47 1009.46 1008.97 1008.63 1008.63 1008.19 1007.58 1006.58 1005.74 1005.78 1004.52 1003.13 1001.55 1000.64 1001.14 1000.91 1000.08 999.59 999.31 998.67 998.26 998.07 997.28 997.05 996.50 995.76 993.26 993.52 994.68
1018.89 1018.36 1017.80 1017.26 1016.79 1016.24 1015.95 1015.79 1015.33 1015.00 1014.70 1014.40 1014.17 1013.96 1014.14 1014.17 1014.14 1014.10 1014.13 1014.28 1014.36 1014.06 1013.36 1012.10 1011.24 1010.26 1009.32 1009.24 1009.27 1009.25 1008.65 1007.80 1006.66 1004.77 1004.54 1002.66 1000.46 999.61 999.76 999.59 999.52 999.49 999.18 998.63 998.40 998.22 998.20 997.62 997.10 997.16 997.18 994.06 994.24 995.25
1018.24 1017.69 1017.16 1016.58 1016.05 1015.61 1015.26 1015.01 1014.76 1014.44 1014.14 1014.24 1014.10 1013.91 1013.80 1013.71 1013.53 1013.46 1012.90 1012.95 1012.74 1012.00 1011.02 1010.84 1010.71 1010.77 1010.19 1009.67 1009.68 1009.52 1008.69 1008.29 1006.81 1005.48 1004.22 1001.36 998.91 997.80 997.68 997.99 998.14 997.97 997.76 997.90 997.86 998.10 997.90 997.78 997.80 998.10 995.97 994.14 995.08 995.89
1017.66 1017.09 1016.54 1015.91 1015.35 1014.93 1014.41 1014.26 1014.30 1014.06 1014.15 1013.79 1013.80 1013.20 1012.88 1012.96 1012.61 1012.27 1011.27 1010.59 1010.50 1010.22 1009.46 1009.66 1009.85 1009.90 1010.22 1009.74 1009.54 1009.21 1008.74 1007.91 1007.35 1005.78 1003.95 1002.02 1000.16 999.29 998.47 998.46 998.46 998.60 998.62 998.43 998.39 997.95 997.50 997.42 997.07 998.31 998.64 995.40 996.43 997.56
1017.08 1016.47 1015.86 1015.31 1014.80 1014.25 1013.74 1013.53 1013.51 1013.52 1013.22 1012.90 1012.17 1011.77 1011.60 1011.34 1010.95 1010.41 1009.01 1007.56 1007.02 1007.31 1007.58 1008.58 1009.16 1009.08 1008.68 1008.98 1009.09 1008.88 1008.42 1008.12 1006.98 1005.74 1004.19 1002.95 1000.91 998.76 999.00 998.07 997.91 998.25 998.75 999.27 998.98 998.25 998.74 997.83 997.92 998.02 997.63 997.54 998.49 999.25
1016.44 1015.77 1015.21 1014.59 1014.21 1013.62 1013.22 1012.94 1012.92 1012.66 1012.30 1011.58 1011.63 1011.63 1011.08 1010.09 1009.24 1008.20 1006.63 1005.24 1004.46 1004.12 1005.95 1007.45 1007.97 1008.36 1008.50 1008.70 1008.66 1008.22 1007.77 1007.10 1006.44 1005.69 1005.07 1003.58 1001.90 1000.68 999.38 999.26 999.36 999.61 999.70 1000.03 999.58 999.04 998.86 999.37 999.27 999.30 999.40 999.70 1000.40 1000.23
1015.79 1014.81 1014.41 1014.20 1013.61 1012.88 1012.47 1011.84 1011.83 1011.11 1009.70 1010.63 1011.44 1011.30 1009.84 1008.87 1007.96 1006.81 1004.97 1004.11 1003.18 1003.14 1004.27 1005.18 1006.28 1006.90 1007.16 1007.31 1007.29 1007.23 1006.94 1006.44 1005.96 1005.48 1004.58 1004.07 1003.08 1002.31 1001.08 1000.61 1000.60 1000.75 1001.12 1000.66 1000.26 1000.36 999.22 999.78 1000.66 1001.10 1001.27 1001.79 1001.78 1001.97
1015.61 1014.04 1014.05 1013.58 1013.01 1012.01 1011.43 1011.32 1009.66 1009.47 1009.44 1009.76 1009.99 1010.10 1009.23 1008.38 1007.63 1006.31 1004.89 1004.24 1003.82 1003.64 1003.81 1004.61 1005.82 1006.60 1006.78 1006.74 1006.80 1006.05 1005.45 1005.47 1004.86 1004.49 1004.67 1004.30 1004.13 1003.67 1003.36 1002.98 1003.20 1002.78 1002.78 1001.14 999.80 1000.57 1000.78 1001.56 1001.99 1003.38 1003.29 1002.96 1003.56 1003.58
1014.55 1013.18 1013.63 1013.73 1013.36 1011.68 1010.03 1010.17 1009.50 1009.08 1008.80 1008.87 1009.22 1008.33 1008.30 1007.48 1007.00 1006.23 1005.72 1005.29 1004.78 1004.95 1005.21 1006.18 1006.80 1006.87 1007.03 1006.62 1005.62 1006.21 1005.46 1005.08 1004.81 1004.66 1004.58 1004.72 1004.92 1004.90 1004.52 1004.24 1004.14 1003.58 1003.42 1003.61 1003.46 1003.34 1003.22 1003.80 1004.11 1004.12 1003.73 1003.76 1003.75 1003.74
1014.95 1014.58 1014.14 1013.87 1013.93 1013.06 1010.20 1009.47 1009.60 1009.16 1008.85 1008.66 1008.38 1008.29 1008.03 1007.60 1007.23 1006.81 1006.43 1006.10 1006.26 1006.54 1006.54 1007.10 1007.42 1007.58 1007.54 1007.38 1006.67 1006.23 1005.50 1005.29 1005.14 1004.95 1004.68 1004.87 1005.06 1005.02 1004.78 1004.56 1004.32 1004.29 1004.46 1004.40 1003.94 1004.00 1004.54 1004.89 1004.67 1003.86 1004.65 1004.77 1003.90 1004.56
1014.47 1014.21 1013.83 1013.54 1013.59 1011.66 1009.71 1009.20 1009.40 1009.20 1008.93 1008.74 1008.38 1008.01 1007.95 1007.67 1007.60 1007.38 1007.25 1006.94 1006.64 1006.64 1007.09 1008.05 1008.41 1008.26 1007.97 1007.42 1006.75 1006.39 1006.10 1005.66 1005.31 1005.35 1005.52 1005.31 1004.96 1005.05 1005.00 1004.46 1004.82 1004.94 1004.91 1004.43 1004.18 1004.07 1004.08 1003.78 1003.21 1003.43 1003.65 1003.98 1004.42 1004.49
1013.64 1013.06 1012.73 1012.57 1011.73 1010.88 1010.09 1009.30 1008.86 1008.81 1009.14 1008.71 1008.55 1008.35 1008.42 1008.16 1008.48 1008.45 1008.63 1008.31 1007.92 1008.27 1008.49 1008.81 1008.56 1008.15 1007.89 1007.54 1006.95 1006.59 1006.31 1006.08 1006.27 1006.14 1005.89 1005.58 1005.36 1004.90 1005.24 1005.15 1004.63 1004.41 1004.54 1004.62 1004.52 1004.20 1004.04 1004.04 1003.67 1003.77 1003.85 1004.00 1003.80 1003.33
1013.01 1013.10 1012.48 1011.48 1010.84 1010.11 1009.58 1009.23 1009.22 1008.92 1008.99 1008.48 1008.52 1008.59 1008.74 1008.85 1009.01 1009.00 1009.40 1009.00 1009.15 1009.41 1009.13 1008.73 1008.22 1007.86 1007.70 1007.58 1007.44 1006.94 1006.69 1006.46 1006.32 1006.26 1006.03 1005.70 1005.58 1005.47 1005.47 1005.52 1005.96 1005.88 1005.60 1005.86 1005.29 1005.25 1004.36 1004.00 1003.95 1003.36 1003.26 1003.77 1003.86 1003.82
1013.34 1013.29 1011.85 1010.94 1010.50 1010.28 1009.76 1009.14 1008.79 1008.39 1008.39 1008.44 1008.57 1008.91 1009.10 1009.19 1009.47 1009.96 1010.45 1010.64 1010.18 1009.68 1009.45 1009.12 1008.78 1008.53 1008.26 1007.97 1007.71 1007.48 1007.10 1006.58 1006.70 1006.90 1006.72 1006.49 1006.44 1006.32 1006.19 1006.11 1006.17 1006.38 1006.59 1006.72 1006.77 1006.01 1005.30 1004.79 1004.40 1004.22 1003.77 1004.47 1004.31 1004.10
1013.81 1012.54 1011.32 1010.40 1010.08 1010.11 1009.20 1009.36 1008.98 1008.81 1008.93 1009.14 1008.83 1008.90 1009.02 1009.13 1009.96 1010.59 1011.69 1011.89 1011.72 1010.69 1010.47 1010.08 1009.44 1009.03 1008.78 1008.65 1008.36 1008.38 1007.91 1007.15 1006.75 1007.23 1007.14 1006.86 1007.23 1007.39 1006.96 1006.82 1007.09 1007.21 1007.24 1006.92 1006.83 1006.83 1006.48 1006.02 1005.49 1005.15 1005.07 1004.98 1005.27 1004.96
1013.18 1012.16 1011.13 1010.87 1010.20 1010.13 1009.77 1009.72 1010.05 1010.40 1010.06 1009.62 1009.68 1010.15 1010.02 1009.29 1010.81 1012.00 1013.44 1013.98 1013.31 1012.78 1011.90 1011.15 1010.47 1009.90 1009.66 1009.46 1009.29 1009.31 1009.20 1008.45 1008.01 1007.83 1008.11 1007.94 1007.90 1007.46 1007.51 1007.58 1008.19 1008.89 1008.56 1008.16 1008.16 1007.99 1007.52 1007.21 1006.58 1006.27 1006.03 1006.25 1006.31 1006.16
1012.25 1010.84 1010.79 1009.96 1009.72 1009.58 1009.46 1009.53 1009.29 1009.29 1009.34 1010.06 1011.10 1011.74 1011.44 1011.40 1013.27 1015.10 1016.24 1016.40 1015.58 1014.81 1013.70 1012.12 1011.52 1010.90 1010.54 1010.43 1010.22 1010.12 1009.99 1009.70 1009.38 1008.94 1008.90 1008.62 1008.99 1009.17 1009.22 1009.20 1009.60 1010.25 1010.09 1009.84 1009.85 1009.42 1009.06 1008.80 1008.11 1007.41 1006.81 1006.68 1006.90 1006.75
1011.38 1010.44 1011.04 1010.78 1009.52 1009.71 1009.79 1009.67 1010.18 1010.30 1011.00 1012.05 1012.73 1013.00 1013.88 1014.96 1016.85 1018.28 1018.18 1017.66 1017.02 1015.90 1014.32 1013.04 1012.51 1011.96 1011.53 1011.30 1010.96 1010.86 1010.85 1010.81 1010.74 1010.52 1009.76 1009.74 1009.87 1010.24 1010.27 1010.47 1010.97 1011.40 1010.73 1010.45 1010.43 1010.17 1010.16 1009.95 1009.38 1008.86 1008.22 1007.61 1007.20 1007.19
1010.26 1009.72 1010.06 1010.03 1009.92 1010.21 1010.15 1010.67 1011.25 1011.88 1012.62 1013.58 1015.00 1016.03 1016.88 1017.62 1018.42 1018.83 1018.45 1017.70 1017.23 1016.36 1014.99 1013.54 1013.02 1012.70 1012.42 1012.28 1012.02 1011.88 1011.68 1011.86 1011.72 1011.50 1010.66 1010.18 1010.60 1011.26 1011.68 1011.70 1011.85 1011.95 1011.68 1011.95 1011.73 1011.20 1011.06 1010.68 1010.45 1009.95 1009.34 1008.70 1008.14 1008.04
1009.93 1009.33 1009.34 1009.48 1010.36 1010.82 1011.15 1011.57 1012.44 1013.21 1013.54 1014.34 1015.62 1016.56 1017.39 1018.06 1018.07 1018.10 1017.86 1017.56 1016.72 1015.70 1014.64 1013.40 1013.15 1013.22 1013.23 1013.09 1012.97 1012.98 1012.84 1013.27 1013.40 1013.10 1012.63 1012.32 1012.22 1012.61 1012.92 1012.95 1012.70 1012.43 1012.18 1012.04 1012.32 1012.02 1011.86 1011.52 1011.11 1010.51 1010.00 1009.39 1009.13 1009.03
1010.34 1009.02 1009.30 1009.82 1010.36 1011.27 1012.17 1012.50 1013.41 1014.11 1014.66 1015.24 1016.02 1016.82 1017.29 1017.44 1017.41 1017.32 1016.97 1016.19 1015.23 1014.25 1014.06 1014.05 1013.90 1014.05 1014.21 1014.02 1014.01 1014.09 1014.05 1014.76 1015.33 1015.50 1015.25 1014.84 1014.68 1014.66 1014.58 1014.25 1013.67 1013.30 1013.02 1012.65 1012.34 1011.84 1011.83 1011.79 1011.29 1010.95 1010.87 1010.81 1010.66 1010.81
1008.86 1008.99 1008.92 1009.57 1010.41 1011.40 1012.06 1013.03 1013.79 1014.24 1014.66 1015.24 1015.72 1016.21 1016.70 1017.33 1016.94 1016.62 1016.24 1015.32 1014.80 1014.60 1014.75 1014.75 1014.81 1015.07 1015.33 1015.22 1015.21 1015.18 1015.32 1015.44 1016.13 1016.62 1017.11 1016.78 1016.48 1016.21 1015.78 1015.15 1014.64 1014.36 1013.99 1013.58 1012.92 1012.41 1012.35 1012.26 1012.13 1012.02 1011.84 1011.87 1011.77 1011.72
1009.51 1008.76 1009.11 1009.24 1010.97 1011.85 1012.53 1012.90 1013.83 1013.92 1014.47 1014.92 1015.48 1015.86 1017.23 1017.84 1017.32 1016.20 1015.64 1015.30 1015.31 1015.38 1015.63 1015.42 1015.64 1015.90 1016.44 1016.32 1016.43 1016.21 1016.49 1016.12 1016.88 1017.52 1017.89 1017.87 1017.63 1017.31 1016.69 1016.09 1015.83 1015.37 1014.90 1014.11 1013.41 1013.30 1013.43 1013.52 1013.37 1013.60 1013.39 1013.27 1013.09 1013.02
1008.50 1008.89 1009.22 1009.18 1009.83 1010.91 1011.30 1011.99 1012.46 1012.98 1013.68 1014.18 1015.04 1015.89 1016.85 1016.87 1016.33 1015.90 1015.75 1015.78 1015.90 1016.03 1016.22 1016.13 1016.16 1016.57 1016.92 1017.20 1017.28 1017.26 1016.92 1017.53 1018.07 1018.38 1018.57 1018.54 1018.55 1018.43 1017.86 1017.57 1017.18 1016.35 1015.66 1014.86 1014.71 1014.76 1014.76 1014.80 1014.64 1014.63 1014.48 1014.39 1014.30 1014.21
Wind_Speed
17 19 19 20 20 20 19 19 20 20 20 20 14 14 15 13 10 7 7 7 6 7 15 19 15 17 7 10 11 11 10 2 12 13 13 14 15 17 18 20 20 18 12 13 12 15 17 12 15 12 9 9 6 7
18 19 20 20 20 19 19 18 17 17 16 18 16 14 14 12 10 6 7 7 6 4 10 19 18 21 20 17 12 11 8 13 6 8 8 8 11 13 17 17 19 19 15 13 12 11 6 10 9 10 11 4 7 10
18 18 19 20 20 19 19 19 18 17 18 16 17 14 13 10 11 11 9 3 2 4 11 16 17 20 21 20 17 11 10 14 9 7 1 4 7 6 6 5 12 16 16 15 20 17 17 13 15 15 13 13 5 8
19 19 18 18 18 19 19 18 19 18 18 16 16 15 12 11 10 8 5 5 5 4 7 12 9 10 11 16 20 18 17 15 7 6 6 6 6 9 3 11 15 14 18 11 17 13 22 16 21 20 17 15 15 6
19 20 20 20 19 18 19 19 19 19 18 17 16 16 13 10 9 10 8 6 7 5 8 12 20 20 16 15 14 17 16 15 11 10 8 11 11 12 13 11 15 9 10 6 3 13 14 11 12 16 19 18 18 9
19 20 21 21 21 19 20 19 19 19 19 17 15 16 14 10 7 7 4 7 7 9 3 6 10 15 13 10 19 15 12 12 11 11 10 11 18 11 8 12 15 20 2 18 12 17 17 17 20 19 15 19 18 7
21 21 22 21 22 21 20 21 20 19 17 16 15 15 13 10 7 6 3 1 5 5 2 6 6 3 11 12 9 9 16 9 10 11 13 13 13 6 12 18 21 23 18 15 19 21 18 14 17 22 22 22 7 6
22 21 22 22 22 22 19 20 20 18 17 17 15 13 11 9 7 7 8 12 9 2 2 4 7 6 4 4 3 6 8 10 7 9 10 12 12 11 13 16 20 21 21 21 18 16 16 19 18 21 20 13 11 14
22 22 22 21 21 22 19 19 18 18 17 16 12 7 2 3 4 2 7 8 1 2 3 5 4 3 0 2 4 5 4 4 6 10 13 12 14 14 24 21 20 18 14 19 19 17 16 17 19 23 23 9 13 15
21 21 21 21 20 21 19 17 17 17 15 6 2 2 3 3 14 8 2 3 3 3 4 4 8 7 1 0 4 4 4 6 5 10 9 14 16 25 27 22 19 18 15 14 18 15 16 17 18 15 27 12 15 15
20 21 21 20 20 19 18 16 16 14 3 3 2 2 3 7 3 3 3 4 3 4 5 4 8 11 6 5 4 3 2 3 5 6 8 7 14 22 25 23 20 20 20 19 16 16 17 20 18 17 23 13 14 16
19 19 20 20 19 18 17 15 12 6 1 1 1 1 2 3 2 3 3 2 6 5 5 4 5 5 3 2 2 2 4 4 6 4 6 6 9 6 9 19 23 20 20 16 15 17 18 17 14 17 15 16 15 16
19 20 19 18 18 17 17 14 8 10 6 2 2 3 3 3 2 2 4 3 3 5 6 5 4 4 4 6 2 4 4 5 6 4 4 4 13 14 13 10 10 8 11 12 15 19 17 8 17 11 7 11 17 13
21 20 18 18 16 16 15 11 6 2 4 3 4 3 4 3 2 5 8 9 4 6 9 6 3 2 2 2 1 3 2 2 3 3 3 8 16 15 12 10 10 10 8 10 12 11 15 13 12 13 13 14 12 9
22 20 18 14 12 13 13 10 3 5 3 1 4 4 3 6 9 12 12 7 5 6 10 5 3 3 2 2 4 3 3 2 2 4 4 7 14 12 11 17 12 9 10 4 8 10 16 15 14 14 12 12 9 8
22 22 3 8 13 18 13 10 6 5 4 4 3 4 7 7 7 9 11 11 14 10 7 4 4 1 3 1 3 3 3 4 4 3 1 5 12 13 18 19 18 16 15 11 12 15 17 19 15 11 12 8 10 9
19 3 8 14 19 22 14 4 3 5 8 6 2 5 6 5 5 9 11 10 9 11 12 6 7 7 2 3 5 4 4 1 4 6 3 3 9 13 15 16 14 14 12 15 18 21 16 14 14 10 7 9 7 5
6 9 15 16 15 10 3 1 4 4 2 7 2 8 4 8 8 8 12 14 9 11 7 7 3 5 5 7 6 6 4 4 6 7 6 7 11 10 8 10 7 12 12 9 11 12 12 11 8 4 7 5 6 6
13 15 19 19 8 5 4 3 3 5 5 3 9 10 10 8 9 10 10 11 12 9 4 4 6 6 5 4 7 8 9 5 6 7 8 9 8 9 8 7 8 8 6 5 5 3 5 8 6 6 7 6 3 3
19 15 16 13 2 5 4 2 1 3 7 6 4 3 4 6 10 10 12 11 8 10 10 6 8 8 5 8 8 8 9 9 8 10 8 6 5 10 7 1 8 9 5 4 3 3 4 1 3 3 4 5 5 5
4 2 6 6 6 5 4 3 3 2 3 5 7 7 6 9 8 9 13 11 12 11 9 7 7 8 11 8 6 7 9 7 8 7 7 7 7 4 7 7 11 10 10 10 6 5 7 4 1 4 3 7 5 5
5 7 4 4 4 1 4 2 4 5 2 5 2 4 5 4 5 9 8 11 10 4 2 8 10 9 11 13 13 13 8 9 11 9 6 8 8 9 10 11 6 4 10 7 9 12 4 6 7 2 7 10 3 4
7 4 5 3 3 1 5 2 3 4 2 3 2 3 1 3 10 8 5 6 4 9 12 11 8 12 13 13 14 16 13 10 9 9 10 10 8 9 9 9 10 11 8 3 2 8 10 8 11 11 9 10 6 9
3 5 5 6 2 3 4 4 9 8 7 5 4 2 4 4 3 4 9 8 10 11 11 13 11 11 11 12 12 12 13 11 10 12 11 8 5 4 6 9 11 11 10 9 9 9 10 11 11 9 12 10 9 8
2 5 1 4 3 5 6 7 2 3 6 8 3 6 7 2 4 3 7 6 8 11 12 11 11 11 11 11 10 11 13 12 11 9 9 10 12 12 10 9 12 12 13 10 11 12 10 10 11 11 8 8 10 12
2 1 2 6 6 5 4 5 7 13 9 8 6 0 4 4 6 7 5 9 8 10 12 10 11 10 10 11 10 10 11 12 11 11 10 9 9 9 10 11 11 10 11 10 11 12 12 13 13 16 13 10 9 8
2 3 9 13 3 6 6 9 11 11 8 7 6 8 7 6 5 3 5 6 6 9 12 11 10 11 10 10 10 10 9 11 12 11 9 7 9 10 10 11 12 10 11 13 12 13 13 13 13 13 13 12 11 9
3 6 5 8 10 8 12 10 8 8 7 4 4 7 4 2 1 2 3 4 7 9 10 8 7 9 10 10 10 10 10 11 12 12 10 9 11 11 11 10 9 9 9 8 9 10 11 12 12 12 12 11 10 9
3 4 1 5 7 8 7 5 5 5 6 3 3 2 2 3 4 4 4 6 8 9 10 9 9 9 10 10 10 10 10 11 14 17 16 12 12 11 12 11 11 10 9 10 6 7 9 10 12 10 12 10 10 11
13 4 2 7 8 4 6 5 6 6 7 6 5 6 4 3 2 2 5 8 8 9 9 10 10 10 10 11 10 11 10 11 11 12 12 13 13 12 12 11 11 11 10 10 11 10 10 10 10 9 10 10 10 10
11 1 5 5 5 6 7 6 4 4 4 4 5 4 4 2 2 4 7 8 8 10 10 10 10 10 11 11 10 9 9 7 10 13 12 11 12 11 10 11 10 10 11 12 11 10 11 8 9 10 11 12 12 10
7 9 10 4 4 6 5 5 5 4 7 6 0 4 7 1 2 3 3 5 7 9 9 9 9 9 10 9 9 9 8 9 11 10 13 11 10 11 12 11 11 11 11 11 10 12 14 15 12 11 10 11 11 12
3 8 7 4 4 6 6 7 6 3 5 3 5 5 5 6 2 2 3 8 6 8 9 9 7 7 8 10 12 10 10 10 12 9 4 1 7 8 9 9 11 12 14 12 12 12 14 15 13 14 14 13 13 12
Wind_Direction
318 316 315 314 316 316 315 315 318 326 330 332 328 325 327 322 276 251 263 272 193 259 279 287 294 289 270 268 282 353 297 16 290 241 241 248 247 251 254 254 219 218 220 230 231 241 240 250 268 268 358 354 319 283
317 315 313 313 315 313 311 310 312 314 329 336 327 320 329 328 323 253 266 240 194 231 281 312 293 284 284 277 266 271 266 293 331 341 20 317 276 249 242 241 250 237 221 225 238 235 292 311 328 320 305 286 353 7
312 311 311 311 312 312 312 312 309 305 306 319 325 314 317 310 304 255 255 284 258 260 268 249 245 240 235 252 264 262 259 254 251 309 341 302 294 17 312 299 329 247 247 244 239 254 260 281 284 289 298 318 2 335
308 306 305 305 307 309 311 310 311 307 300 305 313 310 300 306 312 290 235 240 235 296 270 280 274 303 294 226 217 236 256 275 240 261 277 255 270 293 343 309 305 305 314 296 249 246 251 250 248 276 287 290 300 272
304 303 302 301 301 303 306 307 307 306 304 298 299 311 291 287 291 282 254 231 225 235 304 310 312 278 250 250 239 222 231 242 252 248 240 264 269 281 278 268 270 264 309 337 311 1 338 302 279 272 261 262 271 294
300 300 299 299 299 301 303 305 306 306 305 301 288 292 293 262 269 278 261 212 236 208 316 291 342 295 243 241 228 223 222 229 237 243 242 240 253 253 266 266 269 268 6 341 320 332 322 315 320 299 294 288 247 248
297 296 295 296 296 300 303 304 307 307 305 297 281 273 280 238 234 239 306 343 345 87 212 261 260 350 230 216 218 232 219 223 230 243 246 266 261 207 262 267 276 288 308 284 296 310 312 320 316 314 309 289 159 185
295 294 295 296 299 299 303 305 309 310 303 294 290 273 266 211 249 265 251 226 216 285 246 269 276 260 12 234 219 257 236 213 200 246 244 239 257 256 251 249 253 261 266 271 269 276 280 303 302 298 295 272 149 136
295 295 295 296 296 298 303 306 308 308 305 307 297 268 136 208 224 77 72 88 18 262 246 228 260 316 349 200 220 162 204 236 260 224 237 242 236 238 246 241 254 275 280 281 289 282 290 292 294 294 281 217 169 150
301 300 298 298 298 299 303 307 307 307 309 308 192 191 212 140 117 129 106 159 152 200 224 253 249 254 60 275 213 174 208 232 234 234 237 229 238 242 243 240 253 256 248 283 285 287 284 289 291 309 306 206 144 139
308 307 305 305 304 301 304 308 308 311 314 228 221 259 105 166 205 190 213 201 161 232 214 233 233 247 263 242 213 240 244 256 247 202 203 222 232 232 233 243 243 246 246 254 270 274 286 278 291 291 293 168 137 145
310 310 310 310 305 303 302 301 302 286 36 350 311 275 205 213 231 259 230 217 212 231 191 208 198 200 262 271 190 234 239 185 250 286 208 239 253 269 219 214 222 238 248 259 269 284 278 287 291 277 281 139 127 121
315 314 309 306 304 300 293 295 293 264 270 229 237 240 197 148 276 247 286 225 240 215 198 202 183 189 205 219 177 234 236 243 333 256 265 275 316 303 295 289 265 270 276 269 280 275 286 300 122 128 117 97 105 117
319 311 309 305 300 291 297 302 298 220 238 237 211 331 339 343 276 247 249 280 263 210 161 171 168 250 156 163 83 235 230 253 258 248 249 269 289 258 260 245 235 235 252 252 250 168 125 88 70 84 81 76 78 78
318 312 309 293 291 304 311 298 265 201 247 16 349 344 308 277 292 281 290 289 288 212 129 160 171 170 111 200 197 241 248 278 290 300 284 355 0 17 41 68 67 108 73 87 107 80 89 95 84 71 65 70 78 84
321 305 294 314 323 320 311 285 197 232 222 107 73 293 286 308 314 322 341 350 350 29 144 139 118 38 75 347 354 22 350 2 287 101 251 82 42 28 34 39 46 48 51 69 72 76 68 68 67 60 48 54 58 51
313 276 4 354 333 309 279 254 324 330 358 340 181 237 303 311 292 345 4 2 13 14 20 21 34 5 247 25 347 314 349 136 313 52 145 85 98 79 59 53 49 53 44 46 56 56 47 57 67 80 91 78 112 119
242 357 2 342 336 284 202 268 326 293 7 4 65 21 62 26 44 36 39 29 19 11 13 32 360 7 14 348 348 26 1 7 35 41 59 66 91 89 86 105 87 70 63 50 67 81 67 54 56 32 44 78 96 114
301 306 307 307 324 299 310 19 354 332 15 240 21 43 29 53 50 33 28 48 54 38 21 5 25 12 21 350 2 19 23 29 41 46 53 79 121 132 145 121 110 106 141 155 122 119 149 167 212 150 166 210 99 176
286 273 273 279 271 274 303 48 222 330 353 330 63 7 152 24 43 51 49 30 27 35 45 44 43 21 16 10 33 43 39 43 50 61 57 61 69 79 47 63 126 155 169 168 109 132 147 143 80 97 132 150 176 166
289 79 289 209 206 248 317 338 308 77 341 310 24 35 28 48 52 44 48 26 48 31 42 37 55 62 55 38 32 47 39 46 66 54 52 42 64 65 70 46 32 37 45 29 10 340 67 54 359 132 169 135 104 88
25 318 280 161 276 238 260 90 298 308 222 285 89 10 44 32 72 68 60 39 56 41 17 18 19 33 49 37 28 24 44 48 37 48 35 47 37 54 40 56 77 20 65 20 9 4 35 55 13 87 62 78 18 79
271 218 234 245 283 49 258 268 278 259 237 6 355 173 228 59 71 60 37 12 6 34 27 22 24 41 26 36 28 15 5 72 61 37 26 40 46 43 47 48 44 41 43 86 182 10 6 36 25 360 50 50 13 34
149 296 334 314 60 300 305 40 297 359 351 2 293 273 192 156 100 64 68 35 13 20 31 7 15 23 30 27 37 26 358 2 37 39 11 40 74 21 42 54 44 30 18 17 33 25 5 2 7 15 21 36 41 29
338 324 87 290 319 347 330 350 301 188 241 280 292 334 2 338 62 61 66 22 6 7 359 13 8 16 24 20 22 24 9 10 4 44 32 28 7 10 24 46 63 35 2 18 12 7 4 358 352 356 5 32 20 2
39 170 123 343 8 351 329 334 347 347 359 22 33 164 267 36 52 37 36 356 348 346 327 358 2 5 14 16 17 19 13 7 10 3 11 34 41 22 22 26 27 21 352 25 12 355 10 1 348 343 344 358 56 20
342 325 37 318 30 3 11 7 19 7 29 9 351 6 18 52 44 24 314 342 326 328 334 354 8 359 10 7 7 16 26 12 19 353 351 58 56 46 25 32 29 5 349 17 9 0 13 1 347 343 342 339 344 1
290 326 25 310 48 339 37 23 25 18 21 25 52 29 36 38 176 245 251 268 288 301 303 327 13 4 9 5 13 3 21 14 13 1 348 34 57 50 27 21 36 359 8 28 360 8 5 354 348 341 344 338 332 26
271 313 19 13 63 40 355 41 40 26 16 74 91 81 108 214 187 223 261 268 275 272 277 355 20 15 10 2 20 10 33 28 15 13 8 14 21 22 17 8 357 356 1 351 63 47 25 358 333 342 335 347 357 10
297 6 298 78 348 70 57 58 84 79 69 76 98 109 120 152 211 239 269 273 300 331 29 360 18 23 7 5 16 10 45 49 32 23 1 3 4 5 1 348 344 354 351 352 340 343 42 354 352 7 15 1 16 351
315 285 9 70 74 97 113 101 100 129 120 128 161 136 117 95 235 286 279 296 358 22 24 4 19 30 15 6 15 19 1 46 50 39 24 1 359 352 343 338 358 352 350 343 330 345 10 357 359 356 5 360 3 358
262 37 4 46 130 111 120 158 176 219 187 198 152 120 91 17 277 253 352 13 15 11 18 14 23 30 32 0 20 8 356 35 40 38 27 13 7 3 347 5 -0 349 351 326 344 14 17 13 18 13 3 356 359 4
50 43 342 6 122 154 193 181 183 204 187 206 177 159 163 193 136 86 30 42 30 32 8 2 43 30 54 28 24 360 2 83 99 110 145 203 54 9 348 9 354 348 342 7 17 15 19 18 21 23 25 28 26 22